CZ-6A DEB, 55519

Orbit data source: Space-Track

CZ-6A DEB, 55519 is space debris in SSO originally from a launch on Fri, 11 Nov 2022 UTC launched from the Taiyaun Space Center, China (TSC). Debris objects in space refer to the collection of defunct objects orbiting the Earth. Examples of debris include non-operational satellites, rocket bodies, and fragments generated from explosions, collisions, or faulty payload assembly.

Loading next visibility...
Identifier
55519, 2022-151XR
Orbit
SSO
Country
Flag of CNCN / PRC
Related business
Manufacturer
SAST
Mission
Spacecraft
Bus & Motor
Unknown
Mass
Unknown
Launch date (UTC)
2022-11-11 (4 years ago)
Launch vehicle
Unknown
Launch site
Taiyaun Space Center, China (TSC)
Object type
Payload
Rocket body
Debris
Shape & HBR
Unknown shape, 0.1 m
Radar Cross Section
Small (<0.1 m²)

Expand to show TLE details & history
Last TLE update: 18 hours ago

TLE from 18 hours ago
0 CZ-6A DEB
1 55519U 22151XR  26235.75996402  .00047772  00000-0  37989-2 0  9991
2 55519  98.7658 341.3275 0015955   3.2715 356.8607 15.00143196195884
Epoch: 2026-08-23T18:14Z
TLE epoch observation values (Epoch: 2026-08-23T18:14:20.891Z)
Latitude
0.00002°
Longitude
95.68905°
Altitude
558.41 km
Speed
7.588 km/s
True Right ascension
22h 45m 18s
True Declination
0° 00' 00"
Sunlit
Object was in full shadow at epoch
Visualization orbit readout
Latitude
Unknown
Longitude
Unknown
Altitude
Unknown
Speed
Unknown
Apparent Right ascension
Unknown
Apparent Declination
Unknown
Sunlit
N/A
Visualization observer readout
Local Sidereal Time
03:50:13
Azimuth
Unknown
Elevation
Unknown
Doppler factor
Unknown
Orbital elements
Apogee altitude
574.585 km
Perigee altitude
552.434 km
Semi-major axis
6,941.647 km
Eccentricity
0.0016
Inclination
98.7658°
RAAN
341.3275°
Arg. of periapsis
3.2715°
True anomaly
356.85067°
Mean anomaly
356.8607°
Eccentric anomaly
356.85569°
Mean motion
3.75275 °/min
Orbital period
95.93 mins
BSTAR
0.0037989
Loading maneuver chart data...
Computing Atmospheric mass density...
Loading historical data...
Loading historical data...
Loading historical data...
Loading historical data...
Loading historical data...
Loading historical data...
Loading historical data...

Documentation

Showing up to 5 results
|